Tracking 17154 objects as of 1-August-2015
HD Live streaming from Space Station

FALCON 9 R/B

Track FALCON 9 R/B now!
10-day predictions
FALCON 9 R/B is classified as:


NORAD ID: 37253
Int'l Code: 2010-066K
Perigee: 297.7 km
Apogee: 10,402.5 km
Inclination: 34.5 °
Period: 210.5 minutes
Semi major axis: 11721 km
RCS: 20.0149 m2 (large)
Launch date: December 8, 2010
Source: United States (US)

Note: This is a ROCKET BODY
Your satellite tracking list
Your tracking list is empty





NASA's NSSDC Master Catalog

Two Line Element Set (TLE):
1 37253U 10066K   15213.49122520  .00008274  00000-0  79649-3 0  9999
2 37253 034.5202 288.4232 4310495 164.7694 214.0603 06.84146412113434

Source of the keplerian elements: AFSPC

N2YO: 289